Weather in Ananyino

Russia / Yaroslavl Oblast     57°29′18″N   39°57′51″E
temp.,
°C
wind,
m/s
gust,
m/s
humid.,
%
clouds,
%
prec.,
mm/h
press.,
hPa
HPBL,
m
21 april, wed
wed2100:00+3e61489100 0.2 1017782
03:00+2e71596100 1.5 1013682
06:00+1e71796100 2.9 1009799
09:00+2ese81796100 5.9 1006875
12:00+6ese91891100 0.4 10021216
15:00+3s91596100 2.0 1004807
18:00+3ssw6989100 0.1 1007929
21:00+3ssw4991100 0.2 1009574
22 april, thu
thu2200:00+3ssw3893100 0.0 1010344
03:00+3ssw3894100 0.1 1012281
06:00+4s4893100 0.0 1012320
09:00+6ssw598198 0.0 1014512
12:00+9ssw6866100 0.4 10141266
15:00+10ssw6964100 0.8 10151512
18:00+10ssw597025 0.1 1016820
21:00+7s5118249 0.1 1017306
23 april, fri
fri2300:00+7sse511865 0.0 1016295
03:00+5sse5129217 0.0 1016296
06:00+6sse5129436 0.0 1016348
09:00+11s6107520 0.0 1016537
12:00+15s7116135 0.0 10161406
15:00+16ssw6115479 1.1 10151807
18:00+14s5115669 0.4 1015820
21:00+10se4127570 0.4 1015317
24 april, sat
sat2400:00+9se513788 0.0 1014347
03:00+8se514825 0.0 1012411
06:00+8se514835 0.0 1011433
09:00+12se813675 0.1 1009885
12:00+15se8115647 0.8 10071748
15:00+14se81260100 2.6 10051553
18:00+10s51088100 2.9 10041032
21:00+6sw5695100 9.6 1003395
25 april, sun
sun2500:00+4wsw4996100 5.3 1004635
03:00+4wsw4897100 6.3 1004643
06:00+3wsw4897100 0.6 1004613
09:00+3sw5996100 1.9 1005557
12:00+4wsw5894100 0.8 1006640
15:00+6sw6975100 1.7 10071213
18:00+6sw5869100 0.3 1007906
21:00+2ssw49855 0.3 1008194